DW6016 Weather Reports


Display with metric or nautical units.
time (UTC)temp
F
wind
direction
speed
MPH
gust
MPH
rain 1hr
in
rain 24hr
in
rain mn
in
humidity
%
barometer
mb
20260510071852 58 299 0.0 0.0 0.00 0.00 0.00 78 1016.7
20260510071349 58 299 0.0 0.0 0.00 0.00 0.00 78 1016.8
20260510070848 59 299 0.0 0.0 0.00 0.00 0.00 77 1016.6
20260510070344 59 299 0.0 0.0 0.00 0.00 0.00 77 1016.9
20260510065844 59 299 0.0 0.0 0.00 0.00 0.00 75 1016.8
20260510065341 60 299 0.0 0.0 0.00 0.00 0.00 75 1016.7
20260510064838 60 299 0.0 0.0 0.00 0.00 0.00 75 1016.6
20260510064336 60 299 0.0 0.0 0.00 0.00 0.00 75 1016.6
20260510063832 60 299 0.0 0.0 0.00 0.00 0.00 74 1016.7
20260510063329 60 299 0.0 0.0 0.00 0.00 0.00 73 1016.6
20260510062825 60 299 0.0 0.0 0.00 0.00 0.00 72 1016.6
20260510062321 61 299 0.0 0.0 0.00 0.00 0.00 72 1016.5
20260510061816 61 299 0.0 0.0 0.00 0.00 0.00 71 1016.5
20260510061314 62 299 0.0 0.0 0.00 0.00 0.00 70 1016.5
20260510060809 62 299 0.0 0.0 0.00 0.00 0.00 68 1016.6
20260510060307 63 299 0.0 0.0 0.00 0.00 0.00 67 1016.7
20260510055803 64 300 0.0 0.0 0.00 0.00 0.00 66 1016.4
20260510055306 64 310 0.0 0.0 0.00 0.00 0.00 64 1016.5
20260510054801 65 277 0.0 0.0 0.00 0.00 0.00 63 1016.4
20260510054257 65 276 0.0 0.0 0.00 0.00 0.00 63 1016.5
20260510053752 65 284 1.0 1.0 0.00 0.00 0.00 62 1016.5
20260510053248 65 289 0.0 0.0 0.00 0.00 0.00 63 1016.3
20260510052744 65 254 1.0 1.0 0.00 0.00 0.00 63 1016.4
20260510052240 65 307 1.0 1.0 0.00 0.00 0.00 63 1016.6
20260510051736 66 292 0.0 0.0 0.00 0.00 0.00 62 1016.5
20260510051233 66 311 0.0 1.0 0.00 0.00 0.00 62 1016.7
20260510050730 66 318 0.0 0.0 0.00 0.00 0.00 62 1016.6
20260510050227 66 293 0.0 1.0 0.00 0.00 0.00 62 1016.7
20260510045724 66 305 0.0 0.0 0.00 0.00 0.00 62 1016.4
20260510045220 67 300 0.0 1.0 0.00 0.00 0.00 62 1016.2
20260510044717 66 310 1.0 2.0 0.00 0.00 0.00 61 1016.4
20260510044215 67 296 0.0 0.0 0.00 0.00 0.00 61 1016.2
20260510043710 66 301 0.0 0.0 0.00 0.00 0.00 61 1016.4
20260510043207 67 294 0.0 0.0 0.00 0.00 0.00 61 1016.3
20260510042704 67 292 0.0 0.0 0.00 0.00 0.00 61 1016.2
20260510042200 67 316 0.0 0.0 0.00 0.00 0.00 60 1016.0
20260510041657 67 308 0.0 0.0 0.00 0.00 0.00 60 1016.1
20260510041154 67 299 0.0 1.0 0.00 0.00 0.00 60 1015.9
20260510040651 67 312 1.0 1.0 0.00 0.00 0.00 59 1015.6
20260510040148 68 301 0.0 1.0 0.00 0.00 0.00 58 1015.7
20260510035643 68 297 0.0 1.0 0.00 0.00 0.00 57 1015.8
20260510035139 68 308 0.0 0.0 0.00 0.00 0.00 58 1015.8
20260510034636 68 299 0.0 0.0 0.00 0.00 0.00 56 1015.6
20260510034133 68 313 0.0 0.0 0.00 0.00 0.00 56 1015.5
20260510033629 68 306 0.0 0.0 0.00 0.00 0.00 55 1015.7
20260510033127 68 291 0.0 1.0 0.00 0.00 0.00 55 1015.5
20260510032623 69 304 1.0 1.0 0.00 0.00 0.00 55 1015.5
20260510032119 69 304 0.0 0.0 0.00 0.00 0.00 55 1015.5
20260510031614 69 293 0.0 1.0 0.00 0.00 0.00 54 1015.6
20260510031111 69 315 0.0 0.0 0.00 0.00 0.00 53 1015.4
20260510030605 70 295 0.0 1.0 0.00 0.00 0.00 53 1015.4
20260510030103 70 292 0.0 0.0 0.00 0.00 0.00 53 1015.5
20260510025600 71 292 0.0 0.0 0.00 0.00 0.00 51 1015.6
20260510025058 71 302 0.0 0.0 0.00 0.00 0.00 51 1015.5
20260510024554 71 307 1.0 2.0 0.00 0.00 0.00 50 1015.3
20260510024050 72 301 0.0 0.0 0.00 0.00 0.00 49 1015.6
20260510023547 72 302 0.0 0.0 0.00 0.00 0.00 48 1015.5
20260510023044 72 317 1.0 1.0 0.00 0.00 0.00 47 1015.5
20260510022543 72 298 0.0 0.0 0.00 0.00 0.00 46 1015.5
20260510022038 73 243 1.0 1.0 0.00 0.00 0.00 46 1015.7
20260510021535 73 300 0.0 1.0 0.00 0.00 0.00 43 1015.4
20260510021032 73 299 0.0 0.0 0.00 0.00 0.00 41 1015.6
20260510020526 73 259 1.0 1.0 0.00 0.00 0.00 41 1015.7
20260510020022 73 287 0.0 0.0 0.00 0.00 0.00 41 1015.6
20260510015518 74 303 0.0 0.0 0.00 0.00 0.00 39 1015.5
20260510015014 74 303 0.0 0.0 0.00 0.00 0.00 41 1015.5
20260510014511 74 304 0.0 1.0 0.00 0.00 0.00 42 1015.5
20260510014008 75 302 1.0 1.0 0.00 0.00 0.00 41 1015.6
20260510013502 75 293 0.0 1.0 0.00 0.00 0.00 40 1015.8
20260510012958 76 302 0.0 0.0 0.00 0.00 0.00 41 1015.6
20260510012447 76 291 1.0 1.0 0.00 0.00 0.00 40 1015.8
20260510011942 76 307 0.0 0.0 0.00 0.00 0.00 40 1016.0
20260510011437 76 302 0.0 1.0 0.00 0.00 0.00 38 1016.0
20260510010934 77 303 0.0 1.0 0.00 0.00 0.00 36 1015.7
20260510010431 77 298 1.0 1.0 0.00 0.00 0.00 35 1015.9
20260510005928 77 302 1.0 1.0 0.00 0.00 0.00 33 1015.6
20260510005424 77 302 0.0 1.0 0.00 0.00 0.00 32 1015.8
20260510004921 77 304 0.0 0.0 0.00 0.00 0.00 31 1015.7
20260510004419 77 307 1.0 2.0 0.00 0.00 0.00 30 1015.9
20260510003916 78 304 0.0 1.0 0.00 0.00 0.00 29 1015.9
20260510003414 78 305 1.0 1.0 0.00 0.00 0.00 31 1015.7
20260510002912 78 293 2.0 3.0 0.00 0.00 0.00 29 1015.9
20260510002410 78 296 0.0 1.0 0.00 0.00 0.00 30 1016.0
20260510001906 78 306 0.0 0.0 0.00 0.00 0.00 32 1016.2
20260510001404 78 307 1.0 1.0 0.00 0.00 0.00 32 1016.0
20260510000900 78 306 1.0 1.0 0.00 0.00 0.00 31 1015.8
20260510000357 78 300 1.0 1.0 0.00 0.00 0.00 29 1016.0
20260509235853 78 307 1.0 1.0 0.00 0.00 0.00 31 1016.0
20260509235350 78 312 0.0 1.0 0.00 0.00 0.00 33 1016.1
20260509234846 78 309 2.0 2.0 0.00 0.00 0.00 29 1016.2
20260509234343 78 298 0.0 1.0 0.00 0.00 0.00 29 1016.1
20260509233842 78 303 0.0 0.0 0.00 0.00 0.00 30 1016.3
20260509233339 78 294 1.0 1.0 0.00 0.00 0.00 31 1016.3
20260509232834 78 313 0.0 0.0 0.00 0.00 0.00 29 1016.2
20260509232333 77 310 0.0 0.0 0.00 0.00 0.00 27 1016.2
20260509231828 77 293 0.0 0.0 0.00 0.00 0.00 31 1016.5
20260509231325 78 293 1.0 1.0 0.00 0.00 0.00 28 1016.5
20260509230823 77 306 0.0 1.0 0.00 0.00 0.00 31 1016.6
20260509230320 78 300 0.0 1.0 0.00 0.00 0.00 30 1016.6
20260509225815 77 296 0.0 1.0 0.00 0.00 0.00 33 1017.0
20260509225312 76 297 1.0 1.0 0.00 0.00 0.00 34 1016.8
20260509224808 77 298 2.0 2.0 0.00 0.00 0.00 31 1017.1
20260509224305 76 312 2.0 2.0 0.00 0.00 0.00 30 1017.1
20260509223801 76 347 0.0 1.0 0.00 0.00 0.00 30 1017.0
20260509223258 76 332 2.0 2.0 0.00 0.00 0.00 34 1017.1
20260509222755 76 293 3.0 3.0 0.00 0.00 0.00 33 1017.4
20260509222250 75 106 1.0 2.0 0.00 0.00 0.00 31 1017.4
20260509221746 75 283 2.0 2.0 0.00 0.00 0.00 29 1017.6
20260509221243 75 286 1.0 1.0 0.00 0.00 0.00 34 1017.7
20260509220739 75 318 0.0 1.0 0.00 0.00 0.00 36 1017.9
20260509220236 75 316 0.0 1.0 0.00 0.00 0.00 35 1017.6
20260509215731 74 299 1.0 1.0 0.00 0.00 0.00 37 1017.7
20260509215228 74 308 0.0 0.0 0.00 0.00 0.00 38 1017.8
20260509214725 74 307 3.0 3.0 0.00 0.00 0.00 39 1017.9
20260509214222 73 285 1.0 1.0 0.00 0.00 0.00 41 1017.9
20260509213719 73 296 2.0 2.0 0.00 0.00 0.00 41 1017.9
20260509213214 74 316 1.0 2.0 0.00 0.00 0.00 43 1018.4
20260509212712 73 321 1.0 2.0 0.00 0.00 0.00 44 1018.3
20260509212209 73 304 1.0 2.0 0.00 0.00 0.00 44 1018.3
20260509211705 73 311 1.0 1.0 0.00 0.00 0.00 47 1018.2
20260509211201 74 299 1.0 1.0 0.00 0.00 0.00 48 1018.0
20260509210658 73 300 1.0 2.0 0.00 0.00 0.00 47 1018.1
20260509210155 73 305 1.0 2.0 0.00 0.00 0.00 48 1018.3
20260509205650 73 149 2.0 3.0 0.00 0.00 0.00 46 1018.3
20260509205150 73 322 1.0 1.0 0.00 0.00 0.00 48 1018.2
20260509204646 73 257 0.0 1.0 0.00 0.00 0.00 51 1018.5
20260509204143 73 302 2.0 2.0 0.00 0.00 0.00 51 1018.4
20260509203639 73 278 1.0 1.0 0.00 0.00 0.00 53 1018.5
20260509203137 73 326 0.0 1.0 0.00 0.00 0.00 51 1018.7
20260509202637 73 289 1.0 1.0 0.00 0.00 0.00 50 1018.6
20260509202133 74 283 1.0 1.0 0.00 0.00 0.00 52 1018.7
20260509201628 74 328 0.0 1.0 0.00 0.00 0.00 50 1018.7
20260509201126 74 301 1.0 1.0 0.00 0.00 0.00 49 1018.8
20260509200621 74 19 1.0 2.0 0.00 0.00 0.00 51 1018.9
20260509200117 73 180 1.0 2.0 0.00 0.00 0.00 52 1018.8
20260509195613 72 291 2.0 2.0 0.00 0.00 0.00 56 1019.1
20260509195107 72 294 1.0 2.0 0.00 0.00 0.00 52 1019.1
20260509194607 71 291 1.0 1.0 0.00 0.00 0.00 53 1019.1
20260509194105 71 283 1.0 1.0 0.00 0.00 0.00 54 1019.0
20260509193601 71 276 0.0 1.0 0.00 0.00 0.00 57 1019.3
20260509193057 71 96 1.0 2.0 0.00 0.00 0.00 57 1019.6
20260509192553 71 302 1.0 1.0 0.00 0.00 0.00 54 1019.3
20260509192048 71 304 1.0 1.0 0.00 0.00 0.00 56 1019.6
20260509191542 71 89 2.0 2.0 0.00 0.00 0.00 58 1019.6
20260509191039 71 299 2.0 2.0 0.00 0.00 0.00 59 1019.6
20260509190536 70 295 1.0 2.0 0.00 0.00 0.00 60 1019.7
20260509190034 71 282 3.0 3.0 0.00 0.00 0.00 58 1019.8
20260509185531 70 252 1.0 1.0 0.00 0.00 0.00 58 1019.8
20260509185027 69 292 1.0 1.0 0.00 0.00 0.00 60 1019.9
20260509184526 69 281 1.0 2.0 0.00 0.00 0.00 60 1020.0
20260509184022 69 305 1.0 1.0 0.00 0.00 0.00 61 1020.1
20260509183517 69 279 1.0 1.0 0.00 0.00 0.00 60 1020.1
20260509183013 70 272 1.0 1.0 0.00 0.00 0.00 59 1020.3
20260509182510 69 100 0.0 1.0 0.00 0.00 0.00 60 1020.2
20260509182007 69 284 1.0 1.0 0.00 0.00 0.00 63 1020.2
20260509181505 68 310 0.0 1.0 0.00 0.00 0.00 63 1020.3
20260509181002 67 313 0.0 1.0 0.00 0.00 0.00 63 1020.4
20260509180457 67 136 1.0 1.0 0.00 0.00 0.00 63 1020.3
20260509175955 67 289 0.0 1.0 0.00 0.00 0.00 64 1020.4
20260509175451 66 292 1.0 1.0 0.00 0.00 0.00 67 1020.4
20260509174947 66 283 0.0 0.0 0.00 0.00 0.00 69 1020.3
20260509174443 66 298 1.0 1.0 0.00 0.00 0.00 66 1020.5
20260509173938 65 290 2.0 2.0 0.00 0.00 0.00 68 1020.7
20260509173433 64 298 0.0 1.0 0.00 0.00 0.00 70 1020.8
20260509172930 64 298 1.0 1.0 0.00 0.00 0.00 69 1020.8
20260509172427 64 301 0.0 1.0 0.00 0.00 0.00 71 1020.8
20260509171922 64 296 1.0 1.0 0.00 0.00 0.00 71 1021.0
20260509171418 64 110 1.0 2.0 0.00 0.00 0.00 69 1021.1
20260509170914 63 330 0.0 1.0 0.00 0.00 0.00 70 1021.1
20260509170411 64 291 0.0 0.0 0.00 0.00 0.00 71 1021.1
20260509165907 63 323 0.0 1.0 0.00 0.00 0.00 72 1021.1
20260509165401 62 274 1.0 2.0 0.00 0.00 0.00 75 1021.2
20260509164857 62 152 2.0 2.0 0.00 0.00 0.00 73 1021.5
20260509164353 62 300 1.0 1.0 0.00 0.00 0.00 73 1021.4
20260509163849 62 300 1.0 1.0 0.00 0.00 0.00 75 1021.4
20260509163346 61 31 1.0 1.0 0.00 0.00 0.00 74 1021.5
20260509162845 61 269 1.0 2.0 0.00 0.00 0.00 74 1021.9
20260509162344 61 301 1.0 2.0 0.00 0.00 0.00 75 1022.0
20260509161840 61 301 1.0 2.0 0.00 0.00 0.00 74 1021.5
20260509161337 61 169 1.0 2.0 0.00 0.00 0.00 74 1022.2
20260509160832 62 312 1.0 1.0 0.00 0.00 0.00 74 1022.0
20260509160329 61 309 0.0 1.0 0.00 0.00 0.00 75 1022.2
20260509155824 61 298 0.0 1.0 0.00 0.00 0.00 78 1021.9
20260509155320 60 301 1.0 1.0 0.00 0.00 0.00 77 1022.1
20260509154817 60 155 2.0 2.0 0.00 0.00 0.00 76 1021.8
20260509154313 59 308 0.0 0.0 0.00 0.00 0.00 78 1021.9
20260509153810 58 312 0.0 0.0 0.00 0.00 0.00 81 1022.0
20260509153307 60 113 0.0 1.0 0.00 0.00 0.00 79 1022.1
20260509152804 60 326 0.0 0.0 0.00 0.00 0.00 79 1022.2
20260509152259 59 291 0.0 0.0 0.00 0.00 0.00 80 1022.4
20260509151757 58 308 1.0 2.0 0.00 0.00 0.00 80 1022.4
20260509151253 58 313 0.0 0.0 0.00 0.00 0.00 82 1022.5
20260509150752 57 107 2.0 2.0 0.00 0.00 0.00 82 1022.5
20260509150250 57 329 0.0 0.0 0.00 0.00 0.00 84 1022.7
20260509145746 56 295 1.0 1.0 0.00 0.00 0.00 85 1022.6
20260509145246 56 339 1.0 2.0 0.00 0.00 0.00 85 1022.4
20260509144743 55 306 1.0 1.0 0.00 0.00 0.00 88 1022.5
20260509144239 55 330 0.0 1.0 0.00 0.00 0.00 88 1022.4
20260509143737 55 330 0.0 1.0 0.00 0.00 0.00 89 1022.2
20260509143234 55 94 2.0 2.0 0.00 0.00 0.00 89 1022.3
20260509142730 53 322 1.0 1.0 0.00 0.00 0.00 95 1022.5
20260509142226 53 309 0.0 0.0 0.00 0.00 0.00 99 1022.5
20260509141722 52 308 0.0 0.0 0.00 0.00 0.00 99 1022.4
20260509141220 51 317 0.0 0.0 0.00 0.00 0.00 99 1022.4
20260509140716 51 317 0.0 0.0 0.00 0.00 0.00 99 1022.4
20260509140213 50 306 0.0 0.0 0.00 0.00 0.00 99 1022.6
20260509135710 49 299 0.0 0.0 0.00 0.00 0.00 99 1022.4
20260509135209 48 299 0.0 0.0 0.00 0.00 0.00 99 1022.4
20260509134705 48 298 0.0 0.0 0.00 0.00 0.00 99 1022.3
20260509134202 48 298 0.0 0.0 0.00 0.00 0.00 99 1022.2
20260509133659 47 298 0.0 0.0 0.00 0.00 0.00 99 1022.2
20260509133156 47 298 0.0 0.0 0.00 0.00 0.00 99 1022.3
20260509132655 46 298 0.0 0.0 0.00 0.00 0.00 99 1022.2
20260509132153 46 298 0.0 0.0 0.00 0.00 0.00 99 1022.1
20260509131649 45 298 0.0 0.0 0.00 0.00 0.00 99 1022.2
20260509131146 46 298 0.0 0.0 0.00 0.00 0.00 99 1022.2
20260509130641 45 298 0.0 0.0 0.00 0.00 0.00 99 1022.3
20260509130138 45 298 0.0 0.0 0.00 0.00 0.00 99 1022.0
20260509125635 45 298 0.0 0.0 0.00 0.00 0.00 99 1022.2
20260509125131 46 298 0.0 0.0 0.00 0.00 0.00 99 1022.0
20260509124628 46 298 0.0 0.0 0.00 0.00 0.00 99 1022.3
20260509124125 46 298 0.0 0.0 0.00 0.00 0.00 99 1022.3
20260509123623 46 298 0.0 0.0 0.00 0.00 0.00 99 1022.5
20260509123120 46 298 0.0 0.0 0.00 0.00 0.00 99 1022.2
20260509122615 46 298 0.0 0.0 0.00 0.00 0.00 99 1022.4
20260509122113 46 298 0.0 0.0 0.00 0.00 0.00 99 1022.3
20260509121609 46 298 0.0 0.0 0.00 0.00 0.00 99 1022.2
20260509121107 46 298 0.0 0.0 0.00 0.00 0.00 99 1022.3
20260509120605 46 298 0.0 0.0 0.00 0.00 0.00 99 1022.2
20260509115600 46 298 0.0 0.0 0.00 0.00 0.00 99 1022.4
20260509115057 46 298 0.0 0.0 0.00 0.00 0.00 99 1022.6
20260509114555 46 298 0.0 0.0 0.00 0.00 0.00 99 1022.4
20260509114054 46 298 0.0 0.0 0.00 0.00 0.00 99 1022.4
20260509113552 47 298 0.0 0.0 0.00 0.00 0.00 99 1022.1
20260509113049 47 298 0.0 0.0 0.00 0.00 0.00 99 1022.3
20260509112545 47 298 0.0 0.0 0.00 0.00 0.00 99 1022.6
20260509112042 47 298 0.0 0.0 0.00 0.00 0.00 99 1022.7
20260509111540 47 298 0.0 0.0 0.00 0.00 0.00 99 1022.5
20260509111037 47 298 0.0 0.0 0.00 0.00 0.00 99 1022.7
20260509110533 47 298 0.0 0.0 0.00 0.00 0.00 99 1022.7
20260509110031 47 298 0.0 0.0 0.00 0.00 0.00 99 1022.8
20260509105529 47 298 0.0 0.0 0.00 0.00 0.00 99 1022.7
20260509105026 48 298 0.0 0.0 0.00 0.00 0.00 99 1022.7
20260509104523 48 298 0.0 0.0 0.00 0.00 0.00 99 1023.0
20260509104020 48 298 0.0 0.0 0.00 0.00 0.00 98 1022.9
20260509103518 48 298 0.0 0.0 0.00 0.00 0.00 98 1022.6
20260509103016 48 298 0.0 0.0 0.00 0.00 0.00 98 1022.8
20260509102513 48 298 0.0 0.0 0.00 0.00 0.00 97 1022.8
20260509102009 48 298 0.0 0.0 0.00 0.00 0.00 97 1022.6
20260509101506 49 298 0.0 0.0 0.00 0.00 0.00 96 1022.7
20260509101003 49 298 0.0 0.0 0.00 0.00 0.00 96 1022.8
20260509100500 49 298 0.0 0.0 0.00 0.00 0.00 95 1022.7
20260509095956 50 298 0.0 0.0 0.00 0.00 0.00 95 1022.9
20260509095453 50 298 0.0 0.0 0.00 0.00 0.00 95 1023.0
20260509094951 50 297 0.0 0.0 0.00 0.00 0.00 95 1022.7
20260509094447 51 303 0.0 0.0 0.00 0.00 0.00 95 1022.9
20260509093944 51 305 0.0 0.0 0.00 0.00 0.00 95 1023.1
20260509093442 50 311 0.0 0.0 0.00 0.00 0.00 95 1022.9
20260509092940 51 301 0.0 0.0 0.00 0.00 0.00 95 1022.9
20260509092438 50 311 0.0 0.0 0.00 0.00 0.00 96 1022.9
20260509091936 50 315 0.0 0.0 0.00 0.00 0.00 96 1023.1
20260509091432 50 315 0.0 0.0 0.00 0.00 0.00 95 1023.3
20260509090930 50 315 0.0 0.0 0.00 0.00 0.00 95 1023.1
20260509090427 50 323 0.0 1.0 0.00 0.00 0.00 96 1023.2
20260509085925 50 311 0.0 0.0 0.00 0.00 0.00 95 1023.2
20260509085421 50 312 0.0 0.0 0.00 0.00 0.00 94 1023.4
20260509084917 50 312 0.0 0.0 0.00 0.00 0.00 94 1023.2
20260509084414 50 312 0.0 0.0 0.00 0.00 0.00 93 1023.2
20260509083912 51 312 0.0 0.0 0.00 0.00 0.00 92 1023.3
20260509083409 51 312 0.0 0.0 0.00 0.00 0.00 92 1023.4
20260509082906 51 312 0.0 0.0 0.00 0.00 0.00 92 1023.3
20260509082403 51 312 0.0 0.0 0.00 0.00 0.00 92 1023.3
20260509081859 52 311 0.0 0.0 0.00 0.00 0.00 91 1023.3
20260509081357 52 312 0.0 0.0 0.00 0.00 0.00 90 1023.5
20260509080854 52 312 0.0 0.0 0.00 0.00 0.00 89 1023.6
20260509080352 53 312 0.0 0.0 0.00 0.00 0.00 89 1023.6
20260509075850 53 312 0.0 1.0 0.00 0.00 0.00 88 1023.6
20260509075347 53 312 0.0 0.0 0.00 0.00 0.00 87 1023.7
20260509074844 54 304 0.0 0.0 0.00 0.00 0.00 87 1023.5
20260509074342 54 314 0.0 1.0 0.00 0.00 0.00 86 1023.5
20260509073838 54 290 0.0 1.0 0.00 0.00 0.00 87 1023.9
20260509073334 54 305 0.0 0.0 0.00 0.00 0.00 87 1023.5
20260509072831 54 303 0.0 0.0 0.00 0.00 0.00 87 1023.8
20260509072327 54 307 0.0 1.0 0.00 0.00 0.00 87 1023.6